Flag for United Kingdom Weather past 2 weeks in Bury, England, United Kingdom

Now
55 °F

Clear.


Feels Like: 53 °F
Forecast: 44 / 62 °F
Wind: 8 mph from North

Location: Manchester Airport

Current Time: Sep 20, 2014 at 11:41:38 PM

Latest Report: Sep 20, 2014 at 11:20 PM


Visibility: 10 mi

Pressure: 30.21 "Hg

Humidity: 82%

Dew point: 50 °F

Location of BuryLocation

Historic Weather in Bury — Graph

°F

Bury temperature yesterday

Maximum temperature yesterday: 64 °F (at 12:50 PM)
Minimum temperature yesterday: 54 °F (at 5:20 AM)
Average temperature yesterday: 60 °F

Past Weeks' High & Low Weather Summary

 TemperatureHumidityPressure
High72 °F (Sep 10, 2:20 PM)100% (Sep 5, 11:50 PM)30.39 "Hg (Sep 5, 11:50 PM)
Low45 °F (Sep 7, 3:50 AM)47% (Sep 16, 3:20 PM)29.86 "Hg (Sep 18, 4:20 AM)
Average58 °F83%30.10 "Hg
* Reported Sep 5 9:20 PM — Sep 20 9:20 PM, Bury, Weather by CustomWeather, © 2014

Note: Actual official high and low records may vary slightly from our data, if they occured in-between our weather recording intervals... More about our weather records

Advertising

Bury weather history for previous 24 hours

 ConditionsComfort  
Time TempWeatherWind HumidityBarometerVisibility
9:20 PM
Sep 20
57 °FClear.8 mph82%30.18 "Hg10 mi
8:50 PM57 °FClear.9 mph82%30.15 "Hg10 mi
8:20 PM57 °FClear.9 mph82%30.15 "Hg10 mi
7:50 PM59 °FSunny.10 mph77%30.12 "Hg10 mi
7:20 PM59 °FCool.9 mph82%30.12 "HgN/A
6:50 PM59 °FPassing clouds.9 mph82%30.12 "HgN/A
2:20 PM64 °FCloudy.7 mph73%30.07 "Hg5 mi
1:50 PM64 °FBroken clouds.5 mph78%30.07 "Hg5 mi
1:20 PM64 °FPartly sunny.5 mph78%30.07 "Hg5 mi
12:50 PM63 °FBroken clouds.3 mph83%30.07 "Hg6 mi
12:20 PM63 °FPartly sunny.6 mph83%30.07 "Hg5 mi
11:50 AM63 °FPartly sunny.5 mph88%30.07 "Hg4 mi
11:20 AM61 °FBroken clouds.6 mph94%30.04 "Hg4 mi
10:50 AM63 °FMostly cloudy.6 mph88%30.04 "Hg4 mi
10:20 AM61 °FFog.3 mph94%30.04 "Hg3 mi
9:50 AM61 °FFog.3 mph94%30.04 "Hg3 mi
9:20 AM59 °FFog.3 mph100%30.01 "Hg3 mi
8:50 AM59 °FFog.6 mph100%30.01 "Hg2 mi
8:20 AM59 °FFog.7 mph100%30.01 "Hg2 mi
7:50 AM59 °FFog.10 mph100%30.01 "Hg1 mi
7:20 AM59 °FFog.8 mph100%30.01 "Hg1 mi
6:50 AM59 °FFog.6 mph100%30.01 "Hg2 mi
6:20 AM59 °FLight rain. Partly cloudy.7 mph100%29.98 "Hg1 mi
5:50 AM59 °FLight rain. Mostly cloudy.6 mph100%29.98 "Hg1 mi
5:20 AM59 °FDrizzle. Mostly cloudy.6 mph100%29.98 "Hg1 mi
4:50 AM59 °FDrizzle. Low clouds.5 mph100%29.98 "Hg1 mi
4:20 AM59 °FDrizzle. Mostly cloudy.6 mph100%29.98 "Hg1 mi
3:50 AM59 °FDrizzle. Mostly cloudy.3 mph100%29.98 "Hg1 mi
3:20 AM61 °FLight rain. Mostly cloudy.2 mph94%29.98 "Hg1 mi
2:20 AM61 °FFog.2 mph100%29.95 "Hg1 mi
1:50 AM59 °FFog.2 mph100%29.95 "Hg1 mi
1:20 AM61 °FFog.2 mph100%29.95 "Hg1 mi
12:50 AM61 °FFog.3 mph100%29.98 "Hg1 mi
12:20 AM61 °FFog.2 mph100%29.98 "Hg1 mi
11:50 PM
Sep 19
61 °FFog.2 mph100%29.98 "Hg1 mi
11:20 PM61 °FFog.3 mph100%29.98 "Hg1 mi
Weather by CustomWeather, © 2014

See weather overviewHow to use our weather pages